{"data":{"norad_id":69453,"intl_designator":"2026-127L","name":"STARLINK-37500","alt_names":[],"object_type":"PAYLOAD","status":"ACTIVE","operator":null,"country":"US","launch_date":"2026-06-08","launch_site_code":"AFETR","launch_vehicle":null,"mission":null,"orbit_class":"UNKNOWN","rcs_meters":null,"size_class":null,"mass_kg":null,"dimensions":null,"purposes":["comms"],"wikipedia_slug":null,"has_3d_model":false,"image_url":null,"decayed_at":null,"tle_current":{"epoch":"2026-09-20T00:42:13.407840Z","epoch_age_seconds":66162,"freshness":"FRESH","line1":"1 69453U 26127L   26263.02932185  .00016764  00000+0  50617-3 0  9999","line2":"2 69453  53.1585 167.6423 0000804  89.4710 270.6384 15.34400291 16125","mean_motion":15.34400291,"eccentricity":8.04e-5,"inclination_deg":53.1585,"raan_deg":167.6423,"arg_perigee_deg":89.471,"mean_anomaly_deg":270.6384,"bstar":0.00050617,"rev_number":1612,"period_min":93.847740283047,"perigee_km":462.15237180814,"apogee_km":463.25237877969,"semimajor_km":6840.8393752939,"source":"CELESTRAK","updated_at":"2026-09-20T09:00:44.200686Z"}}}